BADR-4

Last updated on Sun Apr 12 2026 00:02:51 GMT+0000 (Coordinated Universal Time)

1 29526U 06051A 26101.31193617 .00000149 00000+0 00000+0 0 9999 2 29526 1.8313 81.8114 0006834 292.4870 323.8583 1.00276974 50595
UTC large
Height (km)
Speed (km/s)
/
Latitude / Longitude
Inclination (degrees)
Orbital Period (minutes)
Azimuth
Elevation
Range (km)
Doppler Factor

Next 0 passes for location: London (51.5072 / 0.1276)

Sorry there are no passes over London.
BADR-4